Regional Weather Roundup
Issued by NWS

Home | Current Version | Previous Version | Text Only | Print | Product List | Glossary On
Versions: 1 2 3 4 5 6 7 8 9 10 11 12 13 14 15 16 17 18 19 20 21 22 23 24 25 26 27 28 29 30 31 32 33 34 35 36 37 38 39 40 41 42 43 44 45 46 47 48 49 50
000
ASUS45 KBOU 211210
RWRCO

WEATHER ROUNDUP FOR COLORADO
NATIONAL WEATHER SERVICE DENVER/BOULDER CO
500 AM MST SUN JAN 21 2018

NOTE: "FAIR" INDICATES FEW OR NO CLOUDS BELOW 12000 FEET WITH NO
SIGNIFICANT WEATHER AND/OR OBSTRUCTIONS TO VISIBILITY.

COZ001>005-013-030-031-211300-
...NORTHWEST COLORADO...

CITY           SKY/WX    TMP DP  RH WIND       PRES   REMARKS
CRAIG          LGT SNOW  21  17  84 SW14      29.73S FOG     WCI   8
HAYDEN         LGT SNOW N/A N/A N/A W12       29.72S
MEEKER         LGT SNOW  22  19  89 NW6       29.73R VSB 3/4 WCI  14
RABBIT EARS PA CLOUDY    18  16  93 SE6       29.62F FOG     WCI   9
STEAMBOAT SPGS CLOUDY    22  20  94 SW5       29.67F WCI  15
WALDEN         CLOUDY    19  18  93 CALM      29.68S
$$

COZ006>008-011-211300-
...WEST CENTRAL VALLEYS...

CITY           SKY/WX    TMP DP  RH WIND       PRES   REMARKS
GRAND JUNCTION SNOW      29  29 100 W7        29.76R VSB 1/2 WCI  22
MONTROSE       CLOUDY    29  22  75 N3        29.75R
EAGLE          CLOUDY    27  25  92 CALM      29.66S
RIFLE          MIX PCPN  29  27  92 W15       29.70R FOG     WCI  18
DELTA          FAIR      35  24  63 W7        29.72R WCI  29
NUCLA          CLOUDY    28  23  80 SW5       29.79S WCI  23
$$

COZ017>023-064>068-211300-
...SOUTHWEST COLORADO...

CITY           SKY/WX    TMP DP  RH WIND       PRES   REMARKS
DURANGO        MOCLDY    24  24 100 SW6       29.73S WCI  17
CORTEZ         FLURRIES  27  25  92 VRB3      29.76S
PAGOSA SPRINGS LGT SNOW  26  25  96 SW9       29.70F WCI  16
TELLURIDE      LGT SNOW  18  17  95 W6        29.69R WCI   9
WOLF CREEK PAS LGT SNOW   9   9 100 MISG      29.66F
$$

COZ009-010-012-014-032>034-037-058>063-211300-
...CENTRAL COLORADO...

CITY           SKY/WX    TMP DP  RH WIND       PRES   REMARKS
ASPEN          MOCLDY    24  22  91 NW3       29.61R
BUENA VISTA    CLOUDY    26  23  89 CALM      29.63S
COPPER MTN     NOT AVBL
BERTHOUD PASS  SNOW       7  -4  61 MISG      29.63F VSB 1/2
COTTONWOOD PAS FLURRIES  28  27  93 SE14      29.61F WCI  17
GUNNISON       NOT AVBL
KREMMLING      CLOUDY    32  28  86 CALM      29.66F
LEADVILLE      CLOUDY    19  17  92 NW3       29.58F
MONARCH PASS   CLOUDY    14  12  92 S13       29.72F WCI   0
SALIDA         CLOUDY    30  27  88 SE8       29.70S WCI  23
SUNLIGHT       LGT SNOW  16  12  86 SW10G16   29.66R VSB 3/4 WCI   3
WILKERSON PASS LGT SNOW  14  12  92 S3        29.66F
$$

COZ069>075-211300-
...SAN LUIS VALLEY/SANGRE DE CRISTO MOUNTAINS...

CITY           SKY/WX    TMP DP  RH WIND       PRES   REMARKS
ALAMOSA        FAIR      23  19  85 S18       29.64F WCI   9
DEL NORTE      CLOUDY    25  17  72 E5        29.65F WCI  20
LA VETA PASS   CLOUDY    18   9  68 S13G35      N/A  WCI   4
SAGUACHE       MIX PCPN  27  25  93 SE8       29.67F WCI  18
$$

COZ035-036-038>040-211300-
...NORTHERN COLORADO FRONT RANGE...

CITY           SKY/WX    TMP DP  RH WIND       PRES   REMARKS
DENVER INTL AP HVY SNOW  26  23  88 N8        29.79R VSB 1/4 WCI  18
DMNS CITY PARK NOT AVBL
AURORA         LGT SNOW  25  25 100 N10       29.78S FOG     WCI  15
FRONT RANGE AP LGT SNOW  28  27  96 NE10      29.79R WCI  19
ERIE MUNI ARPT LGT SNOW  28  27  98 N10       29.87F WCI  18
BOULDER MUN AP LGT SNOW  28  28 100 N9        29.82S WCI  20
CENTENNIAL     SNOW      25  24  96 N10       29.77R VSB 1/2 WCI  15
BROOMFIELD     LGT SNOW  28  27  93 N9        29.80F WCI  20
FORT COLLINS   LGT SNOW  27  26  96 N8        29.84R FOG     WCI  19
LONGMONT       LGT SNOW  30  28  92 N8        29.85S WCI  22
$$

COZ041-046-047-076>085-087-088-211300-
...PIKES PEAK/PALMER DIVIDE AND SOUTHERN FOOTHILLS...

CITY           SKY/WX    TMP DP  RH WIND       PRES   REMARKS
COLO. SPRINGS  LGT SNOW  28  26  92 NW6       29.74R VSB 3/4 WCI  22
A. F. ACADEMY  LGT SNOW  26  24  90 N12       29.71S FOG     WCI  16
SCHRIEVER AFB  LGT SNOW  26  25  95 NE9       29.73R WCI  17
CHEYENNE MTN   SNOW      25  24  98 N9        29.65S VSB 1/2 WCI  15
ELLICOTT       SNOW     N/A N/A N/A N8        29.72R
FALCON         LGT SNOW  24  23  93 N13       29.72R WCI  13
FORT CARSON    LGT SNOW  27  27 100 N6        29.71F FOG     WCI  20
LIMON          CLOUDY    25  25 100 N14       29.74F WCI  13
MONUMENT HILL  LGT SNOW  23  21  93 N7        29.75R WCI  15
CANON CITY     CLOUDY    32  30  93 E5        29.71F WCI  27
WALSENBURG     CLOUDY    30  28  93 E7        29.70R WCI  23
TRINIDAD       CLOUDY    28  26  92 E5        29.71S WCI  23
$$

COZ042>045-048>051-090-091-211300-
...NORTHEAST COLORADO...

CITY           SKY/WX    TMP DP  RH WIND       PRES   REMARKS
GREELEY ARPT   LGT SNOW  28  26  92 NE10      29.85R FOG     WCI  19
AKRON          CLOUDY    27  26  96 NE16      29.79R WCI  15
BURLINGTON     CLOUDY    29  27  92 N14G22    29.74F WCI  18
WRAY           CLOUDY    32  28  86 N12G18    29.80S WCI  23
YUMA           CLOUDY    28  27  93 N14G21    29.80R WCI  17
STERLING       CLOUDY    32  30  93 NE12      29.82S WCI  23
HOLYOKE        CLOUDY    34  30  86 N16G23    29.81F WCI  23
FORT MORGAN    CLOUDY    28  26  92 N12       29.82S WCI  18
$$

COZ086-089-092>099-211300-
...SOUTHEAST COLORADO...

CITY           SKY/WX    TMP DP  RH WIND       PRES   REMARKS
PUEBLO         LGT SNOW  31  28  89 NE3       29.74F FOG
LA JUNTA       CLOUDY    32  25  75 N6        29.76F WCI  26
LAMAR          CLOUDY    32  26  78 N7        29.76R WCI  26
SPRINGFIELD      N/A     28  27  96 N16       29.72R WCI  16
$$



USA.gov is the U.S. government's official web portal to all federal, state and local government web resources and services.